GW5156 Weather Reports


time (UTC)temp
C
wind
direction
speed
KPH
gust
KPH
rain 1hr
cm
rain 24hr
cm
rain mn
cm
humidity
%
barometer
mb
20260510231157 27 58 1.6 4.8 0.00 0.00 0.00 48 1016.0
20260510230655 27 50 1.6 3.2 0.00 0.00 0.00 47 1016.0
20260510230155 27 64 3.2 8.0 0.00 0.00 0.00 47 1016.0
20260510225656 27 37 1.6 4.8 0.00 0.00 0.00 44 1016.0
20260510225157 27 41 3.2 4.8 0.00 0.00 0.00 45 1016.0
20260510224655 28 8 1.6 3.2 0.00 0.00 0.00 45 1016.0
20260510224155 28 4 3.2 4.8 0.00 0.00 0.00 43 1016.0
20260510223655 28 348 1.6 4.8 0.00 0.00 0.00 42 1016.0
20260510223155 28 356 3.2 6.4 0.00 0.00 0.00 42 1016.0
20260510222655 28 229 1.6 4.8 0.00 0.00 0.00 41 1016.0
20260510222155 28 266 1.6 3.2 0.00 0.00 0.00 42 1016.0
20260510221655 28 338 1.6 4.8 0.00 0.00 0.00 43 1016.0
20260510221155 28 16 3.2 8.0 0.00 0.00 0.00 42 1016.0
20260510220655 27 266 3.2 4.8 0.00 0.00 0.00 44 1016.0
20260510220155 28 270 6.4 9.7 0.00 0.00 0.00 43 1016.0
20260510215655 28 258 3.2 4.8 0.00 0.00 0.00 42 1016.0
20260510215157 28 245 6.4 11.3 0.00 0.00 0.00 42 1016.0
20260510214656 28 282 3.2 6.4 0.00 0.00 0.00 43 1016.0
20260510214155 28 258 3.2 4.8 0.00 0.00 0.00 43 1016.0
20260510213657 28 321 3.2 8.0 0.00 0.00 0.00 43 1016.0
20260510213155 28 355 3.2 4.8 0.00 0.00 0.00 43 1016.0
20260510212655 28 38 3.2 9.7 0.00 0.00 0.00 42 1016.0
20260510212155 28 349 3.2 4.8 0.00 0.00 0.00 43 1016.0
20260510211655 28 175 3.2 4.8 0.00 0.00 0.00 42 1016.0
20260510211156 27 241 4.8 6.4 0.00 0.00 0.00 43 1016.0
20260510210656 27 213 4.8 8.0 0.00 0.00 0.00 43 1016.0
20260510210155 27 246 8.0 11.3 0.00 0.00 0.00 44 1016.0
20260510205655 27 8 4.8 8.0 0.00 0.00 0.00 45 1016.0
20260510205155 27 237 8.0 14.5 0.00 0.00 0.00 43 1016.0
20260510204656 27 275 4.8 8.0 0.00 0.00 0.00 44 1016.0
20260510204155 27 219 6.4 9.7 0.00 0.00 0.00 45 1016.0
20260510203656 27 262 4.8 8.0 0.00 0.00 0.00 45 1016.0
20260510203155 27 228 11.3 16.1 0.00 0.00 0.00 46 1016.0
20260510202655 27 101 6.4 8.0 0.00 0.00 0.00 47 1016.0
20260510202155 28 201 6.4 12.9 0.00 0.00 0.00 45 1016.0
20260510201655 28 147 6.4 9.7 0.00 0.00 0.00 45 1016.0
20260510201155 27 251 6.4 12.9 0.00 0.00 0.00 45 1016.0
20260510200655 27 233 4.8 8.0 0.00 0.00 0.00 46 1016.0
20260510200155 27 196 8.0 12.9 0.00 0.00 0.00 46 1016.0
20260510195656 27 315 3.2 6.4 0.00 0.00 0.00 46 1016.0
20260510195155 27 227 6.4 12.9 0.00 0.00 0.00 48 1016.0
20260510194655 27 189 4.8 8.0 0.00 0.00 0.00 48 1016.0
20260510194155 28 216 4.8 8.0 0.00 0.00 0.00 48 1016.0
20260510193657 28 256 3.2 6.4 0.00 0.00 0.00 46 1017.0
20260510193155 28 46 3.2 6.4 0.00 0.00 0.00 47 1017.0
20260510192655 28 235 4.8 8.0 0.00 0.00 0.00 46 1017.0
20260510192156 27 324 1.6 3.2 0.00 0.00 0.00 46 1017.0
20260510191655 27 29 3.2 6.4 0.00 0.00 0.00 49 1017.0
20260510191155 27 321 3.2 4.8 0.00 0.00 0.00 48 1017.0
20260510190656 27 336 1.6 4.8 0.00 0.00 0.00 50 1017.0
20260510190155 27 218 1.6 3.2 0.00 0.00 0.00 52 1017.0
20260510185655 27 290 3.2 8.0 0.00 0.00 0.00 54 1017.0
20260510185155 26 0 3.2 4.8 0.00 0.00 0.00 52 1017.0
20260510184655 26 254 6.4 11.3 0.00 0.00 0.00 53 1017.0
20260510184155 26 12 3.2 6.4 0.00 0.00 0.00 54 1017.0
20260510183655 27 64 3.2 6.4 0.00 0.00 0.00 54 1017.0
20260510183155 27 315 3.2 6.4 0.00 0.00 0.00 54 1017.0
20260510182656 27 324 3.2 9.7 0.00 0.00 0.00 53 1017.0
20260510182155 27 69 3.2 4.8 0.00 0.00 0.00 53 1017.0
20260510181656 27 340 3.2 6.4 0.00 0.00 0.00 53 1017.0
20260510181155 27 65 6.4 11.3 0.00 0.00 0.00 51 1017.0
20260510180655 26 51 3.2 6.4 0.00 0.00 0.00 50 1017.0
20260510180155 26 219 1.6 6.4 0.00 0.00 0.00 53 1017.0
20260510175655 26 281 3.2 4.8 0.00 0.00 0.00 55 1017.0
20260510175156 26 250 3.2 6.4 0.00 0.00 0.00 56 1017.0
20260510174655 26 353 1.6 3.2 0.00 0.00 0.00 55 1017.0
20260510174156 26 45 4.8 9.7 0.00 0.00 0.00 55 1017.0
20260510173655 26 22 3.2 6.4 0.00 0.00 0.00 56 1017.0
20260510173155 25 228 3.2 6.4 0.00 0.00 0.00 56 1017.0
20260510172655 25 137 4.8 6.4 0.00 0.00 0.00 55 1017.0
20260510172155 25 226 3.2 4.8 0.00 0.00 0.00 55 1017.0
20260510171658 25 244 9.7 11.3 0.00 0.00 0.00 56 1017.0
20260510171155 25 216 6.4 11.3 0.00 0.00 0.00 54 1017.0
20260510170656 25 258 3.2 6.4 0.00 0.00 0.00 58 1017.0
20260510170156 25 280 3.2 9.7 0.00 0.00 0.00 61 1018.0
20260510165655 25 228 8.0 19.3 0.00 0.00 0.00 63 1018.0
20260510165155 25 123 6.4 8.0 0.00 0.00 0.00 64 1018.0
20260510164655 24 208 3.2 8.0 0.00 0.00 0.00 64 1018.0
20260510164155 24 187 6.4 11.3 0.00 0.00 0.00 65 1018.0
20260510163655 24 274 8.0 9.7 0.00 0.00 0.00 70 1018.0
20260510163155 23 293 4.8 8.0 0.00 0.00 0.00 69 1018.0
20260510162655 23 256 8.0 11.3 0.00 0.00 0.00 73 1018.0
20260510162156 23 206 8.0 12.9 0.00 0.00 0.00 73 1018.0
20260510161655 23 111 3.2 6.4 0.00 0.00 0.00 72 1018.0
20260510160805 23 274 9.7 11.3 0.00 0.00 0.00 73 1018.0
20260510160155 23 327 3.2 6.4 0.00 0.00 0.00 75 1018.0
20260510155656 23 236 9.7 12.9 0.00 0.00 0.00 74 1018.0
20260510155156 23 292 1.6 3.2 0.00 0.00 0.00 77 1018.0
20260510154656 23 256 6.4 9.7 0.00 0.00 0.00 76 1018.0
20260510154155 22 100 4.8 6.4 0.00 0.00 0.00 78 1018.0
20260510153656 22 92 3.2 6.4 0.00 0.00 0.00 79 1018.0
20260510153155 22 218 4.8 6.4 0.00 0.00 0.00 80 1018.0
20260510152655 22 210 4.8 6.4 0.00 0.00 0.00 80 1018.0
20260510152156 22 197 3.2 4.8 0.00 0.00 0.00 80 1018.0
20260510151655 22 200 1.6 6.4 0.00 0.00 0.00 82 1018.0
20260510151155 21 233 1.6 4.8 0.00 0.00 0.00 82 1018.0
20260510150655 21 146 4.8 6.4 0.00 0.00 0.00 85 1018.0
20260510150156 21 186 4.8 6.4 0.00 0.00 0.00 85 1018.0
20260510145656 21 204 6.4 8.0 0.00 0.00 0.00 84 1018.0
20260510145155 21 38 1.6 4.8 0.00 0.00 0.00 85 1018.0
20260510144656 21 195 1.6 3.2 0.00 0.00 0.00 86 1018.0
20260510144156 20 250 1.6 3.2 0.00 0.00 0.00 87 1018.0
20260510143655 20 306 1.6 3.2 0.00 0.00 0.00 87 1018.0
20260510143155 20 271 1.6 3.2 0.00 0.00 0.00 89 1018.0
20260510142656 19 344 1.6 3.2 0.00 0.00 0.00 93 1018.0
20260510142155 18 247 4.8 6.4 0.00 0.00 0.00 93 1018.0
20260510141655 18 116 3.2 6.4 0.00 0.00 0.00 96 1018.0
20260510141155 18 274 6.4 8.0 0.00 0.00 0.00 98 1018.0
20260510140655 18 251 3.2 4.8 0.00 0.00 0.00 99 1018.0
20260510140156 17 216 4.8 6.4 0.00 0.00 0.00 100 1018.0
20260510135655 17 276 3.2 4.8 0.00 0.00 0.00 99 1018.0
20260510135156 17 247 4.8 6.4 0.00 0.00 0.00 99 1018.0
20260510134655 17 274 1.6 3.2 0.00 0.00 0.00 99 1018.0
20260510134155 17 251 3.2 4.8 0.00 0.00 0.00 99 1018.0
20260510133655 17 225 4.8 6.4 0.00 0.00 0.00 99 1018.0
20260510133155 17 213 3.2 4.8 0.00 0.00 0.00 99 1018.0
20260510132655 17 221 3.2 4.8 0.00 0.00 0.00 99 1018.0
20260510132156 17 203 1.6 3.2 0.00 0.00 0.00 99 1018.0
20260510131657 17 146 1.6 3.2 0.00 0.00 0.00 99 1018.0
20260510131155 17 228 1.6 3.2 0.00 0.00 0.00 99 1018.0
20260510130656 17 339 1.6 6.4 0.00 0.00 0.00 99 1018.0
20260510130155 16 276 0.0 3.2 0.00 0.00 0.00 99 1017.0
20260510125655 16 276 0.0 1.6 0.00 0.00 0.00 99 1017.0
20260510125155 16 344 1.6 3.2 0.00 0.00 0.00 99 1017.0
20260510124658 16 325 0.0 1.6 0.00 0.00 0.00 99 1017.0
20260510124155 16 321 1.6 3.2 0.00 0.00 0.00 99 1017.0
20260510123655 16 269 1.6 1.6 0.00 0.00 0.00 99 1017.0
20260510123155 16 242 1.6 1.6 0.00 0.00 0.00 99 1017.0
20260510122656 16 26 0.0 1.6 0.00 0.00 0.00 99 1017.0
20260510122155 16 55 1.6 1.6 0.00 0.00 0.00 99 1017.0
20260510121655 16 347 1.6 3.2 0.00 0.00 0.00 99 1017.0
20260510121155 16 24 1.6 1.6 0.00 0.00 0.00 99 1017.0
20260510120655 15 5 1.6 3.2 0.00 0.00 0.00 99 1017.0
20260510120157 15 315 0.0 3.2 0.00 0.00 0.00 99 1017.0
20260510115655 15 339 1.6 3.2 0.00 0.00 0.00 99 1017.0
20260510115155 15 318 1.6 1.6 0.00 0.00 0.00 99 1017.0
20260510114655 15 136 0.0 0.0 0.00 0.00 0.00 99 1017.0
20260510114155 15 108 0.0 1.6 0.00 0.00 0.00 99 1017.0
20260510113655 15 179 1.6 3.2 0.00 0.00 0.00 99 1017.0
20260510113155 14 124 1.6 3.2 0.00 0.00 0.00 99 1016.0
20260510112655 14 296 1.6 1.6 0.00 0.00 0.00 99 1016.0
20260510112156 14 83 0.0 1.6 0.00 0.00 0.00 99 1016.0
20260510111655 14 164 1.6 3.2 0.00 0.00 0.00 99 1016.0
20260510111157 14 216 1.6 3.2 0.00 0.00 0.00 99 1016.0
20260510110655 13 208 0.0 1.6 0.00 0.00 0.00 99 1016.0
20260510110155 13 130 1.6 3.2 0.00 0.00 0.00 99 1016.0
20260510105655 13 168 0.0 1.6 0.00 0.00 0.00 99 1016.0
20260510105156 13 133 1.6 3.2 0.00 0.00 0.00 99 1016.0
20260510104658 13 0 0.0 0.0 0.00 0.00 0.00 99 1016.0
20260510104155 13 6 0.0 1.6 0.00 0.00 0.00 99 1016.0
20260510103214 13 42 0.0 1.6 0.00 0.00 0.00 99 1016.0
20260510102655 13 139 0.0 1.6 0.00 0.00 0.00 99 1015.0
20260510102155 13 115 3.2 3.2 0.00 0.00 0.00 99 1015.0
20260510101655 13 0 0.0 0.0 0.00 0.00 0.00 99 1015.0
20260510101155 13 98 0.0 1.6 0.00 0.00 0.00 99 1015.0
20260510100655 13 292 1.6 1.6 0.00 0.00 0.00 99 1015.0
20260510100156 13 280 0.0 0.0 0.00 0.00 0.00 99 1015.0
20260510095655 13 298 0.0 1.6 0.00 0.00 0.00 99 1015.0
20260510095155 13 341 0.0 1.6 0.00 0.00 0.00 99 1015.0
20260510094655 13 108 0.0 1.6 0.00 0.00 0.00 99 1015.0
20260510094155 13 43 1.6 1.6 0.00 0.00 0.00 99 1015.0
20260510093655 13 44 1.6 1.6 0.00 0.00 0.00 99 1015.0
20260510093155 13 330 0.0 1.6 0.00 0.00 0.00 99 1015.0
20260510092655 13 347 0.0 1.6 0.00 0.00 0.00 99 1015.0
20260510092157 13 302 0.0 0.0 0.00 0.00 0.00 99 1015.0
20260510091656 13 37 0.0 1.6 0.00 0.00 0.00 99 1015.0
20260510091155 13 96 0.0 1.6 0.00 0.00 0.00 99 1015.0
20260510090655 14 330 0.0 1.6 0.00 0.00 0.00 99 1015.0
20260510090155 14 5 0.0 0.0 0.00 0.00 0.00 99 1015.0
20260510085655 14 88 0.0 1.6 0.00 0.00 0.00 99 1015.0
20260510085155 14 105 0.0 1.6 0.00 0.00 0.00 99 1015.0
20260510084655 14 338 0.0 0.0 0.00 0.00 0.00 99 1015.0
20260510084157 14 109 0.0 1.6 0.00 0.00 0.00 99 1015.0
20260510083655 14 37 1.6 1.6 0.00 0.00 0.00 99 1015.0
20260510083155 14 14 0.0 1.6 0.00 0.00 0.00 99 1015.0
20260510082655 14 0 0.0 0.0 0.00 0.00 0.00 99 1015.0
20260510082155 14 189 0.0 1.6 0.00 0.00 0.00 99 1015.0
20260510081655 14 332 1.6 3.2 0.00 0.00 0.00 99 1014.0
20260510081155 14 53 0.0 1.6 0.00 0.00 0.00 99 1014.0
20260510080655 14 72 1.6 1.6 0.00 0.00 0.00 99 1014.0
20260510080155 14 47 0.0 1.6 0.00 0.00 0.00 99 1014.0
20260510075656 14 305 0.0 0.0 0.00 0.00 0.00 99 1014.0
20260510075155 15 0 0.0 0.0 0.00 0.00 0.00 99 1014.0
20260510074655 15 62 0.0 0.0 0.00 0.00 0.00 99 1014.0
20260510074155 15 59 0.0 1.6 0.00 0.00 0.00 99 1014.0
20260510073655 15 78 0.0 1.6 0.00 0.00 0.00 99 1014.0
20260510073155 15 74 0.0 1.6 0.00 0.00 0.00 99 1014.0
20260510072655 15 57 0.0 1.6 0.00 0.00 0.00 99 1014.0
20260510072203 15 35 0.0 1.6 0.00 0.00 0.00 99 1014.0
20260510071655 15 0 0.0 0.0 0.00 0.00 0.00 100 1014.0
20260510071155 15 29 0.0 1.6 0.00 0.00 0.00 100 1014.0
20260510070655 15 63 0.0 1.6 0.00 0.00 0.00 100 1014.0
20260510070155 15 63 0.0 1.6 0.00 0.00 0.00 100 1014.0
20260510065655 15 60 0.0 1.6 0.00 0.00 0.00 100 1014.0
20260510065155 15 101 0.0 1.6 0.00 0.00 0.00 100 1014.0
20260510064655 15 61 0.0 1.6 0.00 0.00 0.00 100 1014.0
20260510064155 15 87 0.0 1.6 0.00 0.00 0.00 100 1014.0
20260510063655 15 0 0.0 0.0 0.00 0.00 0.00 100 1014.0
20260510063155 15 74 0.0 1.6 0.00 0.00 0.00 100 1014.0
20260510062655 15 218 0.0 1.6 0.00 0.00 0.00 99 1014.0
20260510062155 15 98 0.0 3.2 0.00 0.00 0.00 100 1014.0
20260510061657 15 0 0.0 0.0 0.00 0.00 0.00 99 1014.0
20260510061155 15 84 0.0 0.0 0.00 0.00 0.00 99 1014.0
20260510060656 15 65 0.0 1.6 0.00 0.00 0.00 99 1014.0
20260510060155 15 0 0.0 0.0 0.00 0.00 0.00 99 1014.0
20260510055655 15 0 0.0 0.0 0.00 0.00 0.00 99 1015.0
20260510055155 15 98 0.0 1.6 0.00 0.00 0.00 99 1014.0
20260510054655 15 95 1.6 3.2 0.00 0.00 0.00 99 1014.0
20260510054155 15 345 0.0 1.6 0.00 0.00 0.00 99 1015.0
20260510053656 15 342 0.0 1.6 0.00 0.00 0.00 99 1015.0
20260510053155 15 86 0.0 1.6 0.00 0.00 0.00 99 1015.0
20260510052655 15 63 0.0 1.6 0.00 0.00 0.00 98 1015.0
20260510052155 15 12 0.0 1.6 0.00 0.00 0.00 98 1015.0
20260510051659 15 218 0.0 1.6 0.00 0.00 0.00 98 1015.0
20260510051155 15 103 0.0 1.6 0.00 0.00 0.00 98 1014.0
20260510050655 15 117 0.0 1.6 0.00 0.00 0.00 98 1014.0
20260510050158 15 39 0.0 0.0 0.00 0.00 0.00 98 1014.0
20260510045655 16 106 0.0 3.2 0.00 0.00 0.00 98 1014.0
20260510045155 16 40 0.0 3.2 0.00 0.00 0.00 98 1015.0
20260510044656 16 103 0.0 1.6 0.00 0.00 0.00 97 1015.0
20260510044155 16 71 0.0 1.6 0.00 0.00 0.00 97 1015.0
20260510043655 16 125 0.0 4.8 0.00 0.00 0.00 97 1015.0
20260510043155 16 100 0.0 1.6 0.00 0.00 0.00 97 1015.0
20260510042655 16 25 0.0 1.6 0.00 0.00 0.00 97 1015.0
20260510042155 16 68 0.0 1.6 0.00 0.00 0.00 97 1015.0
20260510041655 16 66 0.0 0.0 0.00 0.00 0.00 96 1015.0
20260510041156 16 332 0.0 3.2 0.00 0.00 0.00 96 1015.0
20260510040655 16 21 0.0 1.6 0.00 0.00 0.00 96 1015.0
20260510040155 16 85 0.0 1.6 0.00 0.00 0.00 96 1015.0
20260510035655 16 108 0.0 0.0 0.00 0.00 0.00 95 1015.0
20260510035155 16 68 0.0 1.6 0.00 0.00 0.00 95 1015.0
20260510034656 16 87 0.0 1.6 0.00 0.00 0.00 95 1015.0
20260510034156 16 75 0.0 1.6 0.00 0.00 0.00 95 1015.0
20260510033655 16 64 0.0 1.6 0.00 0.00 0.00 94 1015.0
20260510033156 16 342 1.6 3.2 0.00 0.00 0.00 94 1015.0
20260510032655 16 35 0.0 1.6 0.00 0.00 0.00 94 1015.0
20260510032155 16 103 0.0 3.2 0.00 0.00 0.00 93 1015.0
20260510031658 16 109 3.2 4.8 0.00 0.00 0.00 93 1015.0
20260510031156 17 347 0.0 3.2 0.00 0.00 0.00 93 1015.0
20260510030656 17 43 1.6 1.6 0.00 0.00 0.00 93 1015.0
20260510030155 17 82 3.2 3.2 0.00 0.00 0.00 92 1015.0
20260510025656 17 21 0.0 1.6 0.00 0.00 0.00 92 1014.0
20260510025157 17 41 0.0 1.6 0.00 0.00 0.00 92 1014.0
20260510024655 17 24 1.6 1.6 0.00 0.00 0.00 92 1014.0
20260510024155 17 35 1.6 1.6 0.00 0.00 0.00 92 1014.0
20260510023656 17 29 1.6 1.6 0.00 0.00 0.00 91 1014.0
20260510023155 17 354 1.6 3.2 0.00 0.00 0.00 91 1014.0
20260510022655 17 59 1.6 1.6 0.00 0.00 0.00 91 1014.0
20260510022156 17 26 0.0 1.6 0.00 0.00 0.00 90 1014.0
20260510021655 17 25 0.0 1.6 0.00 0.00 0.00 89 1014.0
20260510021155 17 53 0.0 1.6 0.00 0.00 0.00 89 1014.0
20260510020659 18 337 1.6 3.2 0.00 0.00 0.00 89 1014.0
20260510020155 18 17 1.6 1.6 0.00 0.00 0.00 88 1014.0
20260510015655 18 40 1.6 1.6 0.00 0.00 0.00 88 1014.0
20260510015155 18 22 1.6 1.6 0.00 0.00 0.00 87 1013.0
20260510014656 18 4 0.0 1.6 0.00 0.00 0.00 87 1013.0
20260510014155 18 54 1.6 3.2 0.00 0.00 0.00 86 1013.0
20260510013655 18 15 0.0 1.6 0.00 0.00 0.00 86 1013.0
20260510013155 18 342 1.6 1.6 0.00 0.00 0.00 86 1013.0
20260510012655 18 352 3.2 3.2 0.00 0.00 0.00 86 1013.0
20260510012155 18 9 0.0 1.6 0.00 0.00 0.00 85 1013.0
20260510011656 18 352 1.6 3.2 0.00 0.00 0.00 85 1013.0
20260510011157 19 33 1.6 3.2 0.00 0.00 0.00 84 1013.0
20260510010655 19 39 0.0 0.0 0.00 0.00 0.00 83 1013.0
20260510010155 19 355 0.0 1.6 0.00 0.00 0.00 82 1013.0
20260510005655 19 38 1.6 1.6 0.00 0.00 0.00 82 1013.0
20260510005155 20 351 0.0 1.6 0.00 0.00 0.00 82 1013.0
20260510004655 20 355 0.0 1.6 0.00 0.00 0.00 81 1013.0
20260510004155 20 349 1.6 3.2 0.00 0.00 0.00 81 1012.0
20260510003655 20 51 0.0 1.6 0.00 0.00 0.00 79 1012.0
20260510003155 20 13 1.6 1.6 0.00 0.00 0.00 79 1012.0
20260510002655 21 271 0.0 1.6 0.00 0.00 0.00 78 1012.0
20260510002155 21 301 0.0 0.0 0.00 0.00 0.00 77 1012.0
20260510001656 21 21 0.0 1.6 0.00 0.00 0.00 77 1012.0
20260510001155 21 0 1.6 3.2 0.00 0.00 0.00 76 1012.0
20260510000655 21 23 0.0 1.6 0.00 0.00 0.00 76 1012.0
20260510000155 21 336 0.0 1.6 0.00 0.00 0.00 76 1012.0
20260509235655 22 42 0.0 1.6 0.00 0.00 0.00 75 1012.0
20260509235203 22 61 1.6 1.6 0.00 0.00 0.00 75 1012.0
20260509234655 22 11 1.6 3.2 0.00 0.00 0.00 74 1012.0
20260509234155 22 26 0.0 0.0 0.00 0.00 0.00 74 1012.0
20260509233655 22 32 1.6 3.2 0.00 0.00 0.00 73 1012.0
20260509233155 22 42 0.0 1.6 0.00 0.00 0.00 73 1012.0
20260509232655 22 355 1.6 3.2 0.00 0.00 0.00 72 1012.0
20260509232155 23 11 1.6 1.6 0.00 0.00 0.00 70 1012.0
20260509231655 23 25 1.6 3.2 0.00 0.00 0.00 68 1012.0